Flag for U.S.A. Weather past 2 weeks in St. Paul, Minnesota, U.S.A.

Now
57 °F

Fog.


Feels Like: 57 °F
Forecast: 53 / 64 °F
Wind: 3 mph from Southeast

Location: St. Paul Downtown Holman Field

Current Time: Oct 1, 2014 at 7:29:49 PM

Latest Report: Oct 1, 2014 at 6:53 PM


Visibility: 3 mi

Pressure: 29.81 "Hg

Humidity: 96%

Dew point: 56 °F

Location of St. PaulLocation

Historic Weather in St. Paul — Graph

°F

St. Paul temperature yesterday

Maximum temperature yesterday: 57 °F (at 3:53 PM)
Minimum temperature yesterday: 42 °F (at 3:53 AM)
Average temperature yesterday: 49 °F

Past Weeks' High & Low Weather Summary

 TemperatureHumidityPressure
High82 °F (Sep 27, 1:53 PM)100% (Sep 22, 2:53 AM)30.28 "Hg (Sep 22, 2:53 AM)
Low42 °F (Sep 30, 3:53 AM)39% (Sep 28, 3:53 PM)29.65 "Hg (Sep 19, 10:53 PM)
Average61 °F76%30.05 "Hg
* Reported Sep 16 5:53 PM — Oct 1 5:53 PM, St. Paul, Weather by CustomWeather, © 2014

Note: Actual official high and low records may vary slightly from our data, if they occured in-between our weather recording intervals... More about our weather records

Advertising

St. Paul weather history for previous 24 hours

 ConditionsComfort  
Time TempWeatherWind HumidityBarometerVisibility
5:53 PM
Oct 1
56 °FFog.7 mph97%29.79 "Hg4 mi
4:53 PM56 °FLow clouds.9 mph93%29.79 "Hg7 mi
3:53 PM55 °FLow clouds.10 mph93%29.78 "Hg10 mi
2:53 PM54 °FLow clouds.12 mph93%29.79 "Hg10 mi
1:53 PM52 °FLight rain. Mostly cloudy.9 mph97%29.81 "Hg10 mi
12:59 PM51 °FRain. Fog.7 mph96%29.83 "Hg2 mi
11:55 AM50 °FRain. Fog.10 mph96%29.83 "Hg3 mi
10:58 AM50 °FHeavy rain. Fog.13 mph96%29.85 "Hg2 mi
10:01 AM50 °FLight rain. Fog.13 mph93%29.85 "Hg4 mi
8:53 AM50 °FLight rain. Fog.13 mph93%29.86 "Hg4 mi
8:02 AM50 °FLight rain. Fog.10 mph93%29.87 "Hg4 mi
7:53 AM50 °FLight rain. Fog.14 mph93%29.87 "Hg4 mi
6:53 AM50 °FOvercast.12 mph86%29.87 "Hg10 mi
6:04 AM50 °FLight rain. Overcast.12 mph89%29.87 "Hg10 mi
5:53 AM51 °FLight rain. Mostly cloudy.15 mph83%29.86 "Hg7 mi
4:53 AM51 °FMostly cloudy.14 mph80%29.85 "Hg10 mi
3:53 AM51 °FPassing clouds.15 mph80%29.87 "Hg10 mi
2:53 AM51 °FMostly cloudy.12 mph80%29.88 "Hg10 mi
1:53 AM51 °FPassing clouds.14 mph80%29.89 "Hg10 mi
12:53 AM52 °FOvercast.12 mph80%29.89 "Hg10 mi
11:53 PM
Sep 30
52 °FPassing clouds.10 mph80%29.91 "Hg10 mi
10:53 PM53 °FClear.18 mph77%29.87 "Hg10 mi
9:53 PM52 °FClear.17 mph80%29.89 "Hg10 mi
8:53 PM52 °FPassing clouds.13 mph77%29.93 "Hg10 mi
7:53 PM53 °FSunny.9 mph72%29.94 "Hg10 mi
Weather by CustomWeather, © 2014

See weather overviewHow to use our weather pages